Location: Cassano d�Adda
(45.5333°N, 9.5167°E)
Time: 00:04:32
(UTC+00:00)

USA 215 - Pass Details

Date: 08 December 2019
Orbit: 1099 x 1109 km, 123.0° (Epoch: 03 January)

Event Time Altitude Azimuth Distance (km) Brightness Sun altitude
Exits shadow 16:59:38 14° 45° (NE) 2,651 4.7 -13.6°
Maximum altitude 17:04:59 48° 337° (NNW) 1,405 3.9 -14.5°
Drops below altitude 10° 17:11:12 10° 265° (W) 2,964 6.8 -15.6°
Sets 17:13:45 0° 260° (W) 3,922 8.0 -16.0°
